Waarnemingen

Advertentie
Mijn weer
Ajaccio, Frankrijk (7761): temperatuur & dauwpunt: 30.05.2020 23:00:00 - 05.06.2020 23:00:00 (CEST)Ajaccio, Frankrijk (7761): temperatuur 5cm: 30.05.2020 23:00:00 - 05.06.2020 23:00:00 (CEST)Ajaccio, Frankrijk (7761): temperatuur -20cm & temperatuur -100cm: 30.05.2020 23:00:00 - 05.06.2020 23:00:00 (CEST)Ajaccio, Frankrijk (7761): windsnelheid & windstoten: 30.05.2020 23:00:00 - 05.06.2020 23:00:00 (CEST)Ajaccio, Frankrijk (7761): windrichting: 30.05.2020 23:00:00 - 05.06.2020 23:00:00 (CEST)Ajaccio, Frankrijk (7761): luchtdruk: 30.05.2020 23:00:00 - 05.06.2020 23:00:00 (CEST)Ajaccio, Frankrijk (7761): zicht: 30.05.2020 23:00:00 - 05.06.2020 23:00:00 (CEST)Ajaccio, Frankrijk (7761): Zonneschijnduur: 30.05.2020 23:00:00 - 05.06.2020 23:00:00 (CEST)Ajaccio, Frankrijk (7761): neerslag: 30.05.2020 23:00:00 - 05.06.2020 23:00:00 (CEST)
Datum & Tijd tt [°C] td [°C] tt 5cm [°C] tt -20cm [°C] tt -100cm [°C] ff [km/u] ff [kn] fx [km/u] fx [kn] dd ppp [hPa] vv [km] sd [min] rr [mm]
05.06.2020 23:00:00 18,1 14,2 16,9 24,3 22,7 9 5 16 9 ONO 1008,7 20 0 0,0
05.06.2020 22:00:00 18,7 13,8 17,5 24,4 22,7 4 2 12 7 OZO 1008,0 24 0 0,0
05.06.2020 21:00:00 19,3 13,5 18,0 24,4 22,7 4 2 21 11 NW 1007,1 18 0 0,0
05.06.2020 20:00:00 19,9 12,9 19,6 24,4 22,7 14 8 27 15 NW 1006,4 19 9 0,0
05.06.2020 19:00:00 20,2 12,4 20,6 24,3 22,7 16 9 39 21 WNW 1005,9 18 5 0,0
05.06.2020 18:00:00 20,3 13,5 21,5 24,2 22,7 23 12 44 24 W 1005,4 16 5 0,0
05.06.2020 17:00:00 20,4 12,9 21,6 24,2 22,7 27 15 42 23 W 1005,5 18 10 0,0
05.06.2020 16:00:00 21,2 12,1 22,5 24,1 22,7 21 11 37 20 WNW 1005,3 20 31 0,0
05.06.2020 15:00:00 22,5 13,6 21,7 24,1 22,7 22 12 46 25 WNW 1004,8 18 13 0,0
05.06.2020 14:00:00 20,5 12,2 21,7 24,0 22,7 28 15 46 25 NW 1004,3 20 6 0,0
05.06.2020 13:00:00 21,1 12,8 21,9 24,0 22,7 31 17 53 29 WNW 1003,9 20 16 0,0
05.06.2020 12:00:00 21,4 13,3 21,8 24,1 22,7 25 13 48 26 W 1003,5 20 24 0,0
05.06.2020 11:00:00 21,1 13,0 21,6 24,1 22,7 22 12 50 27 WNW 1003,1 20 26 0,0
05.06.2020 10:00:00 20,9 12,8 21,6 24,2 22,7 28 15 48 26 WNW 1002,7 20 30 0,0
05.06.2020 09:00:00 20,9 13,8 20,4 24,4 22,7 24 13 37 20 W 1002,0 25 30 0,0
05.06.2020 08:00:00 19,9 14,9 19,2 24,5 22,7 24 13 40 22 W 1001,1 18 3 0,0
05.06.2020 07:00:00 19,3 15,4 18,4 24,6 22,6 22 12 35 19 WZW 1000,8 17 0 0,0
05.06.2020 06:00:00 19,3 14,5 18,0 24,8 22,7 18 10 37 20 W 1000,4 20 0 0,0
05.06.2020 05:00:00 19,3 14,1 18,0 24,9 22,7 16 8 22 12 W 1000,4 29 0 0,0
05.06.2020 04:00:00 19,3 13,9 18,2 25,1 22,7 13 7 28 15 W 1000,7 28 0 0,0
05.06.2020 03:00:00 19,6 15,5 18,1 25,2 22,7 22 12 32 17 W 1000,8 19 0 0,0
05.06.2020 02:00:00 19,2 15,1 18,3 25,3 22,7 15 8 27 15 W 1001,2 27 0 0,0
05.06.2020 01:00:00 19,2 15,7 17,6 25,5 22,7 10 6 22 12 W 1001,5 20 0 0,0
05.06.2020 00:00:00 19,6 16,4 17,6 25,6 22,6 14 8 26 14 W 1001,7 31 0 0,0
04.06.2020 23:00:00 19,8 17,2 18,1 25,6 22,7 19 10 26 14 WZW 1001,6 20 0 0,0
04.06.2020 22:00:00 19,7 17,8 18,2 25,6 22,6 16 9 34 19 WZW 1000,8 17 0 0,0
04.06.2020 21:00:00 19,1 17,8 18,4 25,8 22,6 29 16 55 30 ZW 999,9 2,2 0 6,7
04.06.2020 20:00:00 21,3 18,5 21,4 25,5 22,6 21 11 30 16 ZZW 1000,3 15 0 0,0
04.06.2020 19:00:00 22,1 18,9 23,5 25,4 22,6 23 13 35 19 ZZW 1000,6 16 4 0,0
04.06.2020 18:00:00 22,6 18,8 24,3 25,2 22,6 22 12 35 19 ZZW 1000,9 18 14 0,0
04.06.2020 17:00:00 22,9 18,2 25,1 25,0 22,6 19 10 29 15 ZW 1001,1 19 12 0,0
04.06.2020 16:00:00 23,9 18,1 28,2 24,9 22,6 14 8 34 18 ZW 1001,7 20 29 -
04.06.2020 15:00:00 24,7 16,7 28,3 24,7 22,6 23 12 44 24 ZW 1002,1 46 30 0,0
04.06.2020 14:00:00 25,0 13,5 28,3 24,6 22,6 18 10 30 16 WZW 1002,0 53 13 0,0
04.06.2020 13:00:00 25,3 12,2 28,8 24,6 22,6 14 8 23 12 W 1002,2 60 43 0,0
04.06.2020 12:00:00 25,1 10,9 30,3 24,7 22,6 10 6 16 9 W 1002,3 60 46 0,0
04.06.2020 11:00:00 24,6 12,5 25,4 24,8 22,6 4 2 9 5 N 1002,7 34 12 0,0
04.06.2020 10:00:00 21,9 12,7 22,8 24,9 22,6 6 3 13 7 NW 1003,5 48 1 0,0
04.06.2020 09:00:00 20,3 13,5 19,6 25,0 22,6 7 4 19 10 NNO 1004,0 51 0 0,0
04.06.2020 08:00:00 17,5 13,2 15,8 25,2 22,6 10 6 18 10 NO 1004,4 50 0 0,0
04.06.2020 07:00:00 15,7 12,6 15,1 25,4 22,6 11 6 17 9 NO 1004,9 54 0 0,0
04.06.2020 06:00:00 15,7 13,0 14,4 25,6 22,6 8 5 16 9 NO 1005,1 58 0 0,0
04.06.2020 05:00:00 15,8 13,5 14,2 25,8 22,6 9 5 14 8 NO 1005,4 51 0 0,0
04.06.2020 04:00:00 16,4 13,9 14,3 25,9 22,6 10 5 19 11 NNO 1006,3 48 0 0,0
04.06.2020 03:00:00 16,1 13,0 14,4 26,1 22,6 11 6 23 13 ONO 1007,2 46 0 0,4
04.06.2020 02:00:00 16,5 13,8 14,7 26,2 22,5 7 4 13 7 ONO 1008,1 31 0 0,4
04.06.2020 01:00:00 17,0 11,9 16,1 26,3 22,6 8 4 24 13 ZW 1008,4 60 0 0,0
04.06.2020 00:00:00 16,3 12,5 14,7 26,4 22,6 8 4 13 7 ONO 1008,5 58 0 0,0
03.06.2020 23:00:00 17,1 13,2 15,4 26,4 22,6 6 3 13 7 ZZO 1008,9 34 0 0,0
03.06.2020 22:00:00 18,8 14,3 17,1 26,3 22,5 7 4 10 5 ONO 1009,0 52 0 0,0
03.06.2020 21:00:00 20,2 14,3 19,0 26,1 22,5 10 5 18 10 ZW 1008,9 60 15 0,0
03.06.2020 20:00:00 21,7 15,3 22,7 25,9 22,7 13 7 21 11 ZZW 1009,1 40 40 0,0
03.06.2020 19:00:00 22,0 14,6 23,5 25,6 22,5 12 7 24 13 ZZW 1009,1 59 48 0,0
03.06.2020 18:00:00 23,3 14,3 26,9 25,2 22,6 11 6 21 11 WZW 1009,1 44 60 0,0
03.06.2020 17:00:00 23,5 15,3 25,9 24,8 22,5 16 9 25 13 ZW 1009,9 27 60 0,0
03.06.2020 16:00:00 23,6 16,4 28,4 24,5 22,6 15 8 28 15 ZW 1010,5 23 60 0,0
03.06.2020 15:00:00 23,6 16,6 31,0 24,2 22,6 19 10 28 15 ZW 1011,1 23 60 0,0
03.06.2020 14:00:00 23,7 16,0 32,5 24,0 22,5 19 10 29 16 ZW 1011,5 27 60 0,0
03.06.2020 13:00:00 23,5 15,5 32,9 23,8 22,5 19 10 30 16 ZW 1011,8 34 60 0,0
03.06.2020 12:00:00 23,1 14,9 32,7 23,8 22,5 15 8 22 12 ZW 1011,9 42 60 0,0
03.06.2020 11:00:00 22,7 14,0 31,6 23,9 22,5 13 7 21 11 ZW 1012,2 50 60 0,0
03.06.2020 10:00:00 21,6 13,2 28,0 23,9 22,5 10 5 16 9 ZW 1012,5 54 60 0,0
03.06.2020 09:00:00 20,8 12,5 21,1 24,1 22,5 6 3 13 7 NNO 1012,8 50 60 0,0
03.06.2020 08:00:00 17,4 12,1 15,0 24,3 22,5 8 5 19 10 NO 1012,9 28 60 0,0
03.06.2020 07:00:00 13,5 10,5 11,3 24,5 22,5 14 7 20 11 NO 1013,0 23 35 0,0
03.06.2020 06:00:00 12,3 10,2 11,3 24,7 22,5 10 6 16 8 NO 1012,6 37 0 0,0
03.06.2020 05:00:00 12,9 10,8 11,8 24,8 22,5 9 5 17 9 NO 1012,4 27 0 0,0
03.06.2020 04:00:00 13,5 11,5 12,1 25,0 22,5 11 6 19 11 ONO 1012,6 31 0 0,0
03.06.2020 03:00:00 13,2 11,4 12,2 25,1 22,5 10 5 15 8 ONO 1013,0 27 0 0,0
03.06.2020 02:00:00 14,2 11,9 13,2 25,2 22,5 9 5 16 9 NO 1013,7 22 0 0,0
03.06.2020 01:00:00 15,0 12,7 13,8 25,3 22,5 9 5 13 7 NO 1014,1 33 0 0,0
03.06.2020 00:00:00 16,0 12,9 14,6 25,4 22,5 10 5 16 9 NO 1014,3 29 0 0,0
02.06.2020 23:00:00 16,8 13,3 15,3 25,4 22,5 10 5 18 10 NO 1014,6 53 0 0,0
02.06.2020 22:00:00 18,7 13,1 16,6 25,4 22,5 5 3 16 8 O 1014,3 53 0 0,0
02.06.2020 21:00:00 20,2 15,2 18,8 25,3 22,5 5 3 19 11 NNO 1013,9 60 22 0,0
02.06.2020 20:00:00 22,1 14,0 22,8 25,1 22,5 15 8 26 14 WNW 1013,6 45 60 0,0
02.06.2020 19:00:00 23,4 13,3 25,4 24,9 22,5 16 8 30 16 WNW 1013,8 60 60 0,0
02.06.2020 18:00:00 23,5 13,7 26,9 24,8 22,5 11 6 23 12 ZZW 1014,0 46 57 0,0
02.06.2020 17:00:00 23,8 15,3 27,6 24,7 22,4 16 8 23 12 ZW 1014,6 46 56 0,0
02.06.2020 16:00:00 23,6 15,4 25,5 24,6 22,5 11 6 19 10 ZW 1015,0 51 10 0,0
02.06.2020 15:00:00 22,2 15,3 25,1 24,6 22,4 11 6 17 9 ZZW 1015,6 48 18 0,0
02.06.2020 14:00:00 21,5 15,3 23,7 24,5 22,4 8 5 14 7 ZZW 1016,0 39 0 0,0
02.06.2020 13:00:00 21,1 15,6 22,7 24,5 22,4 10 5 18 10 ZZW 1016,4 54 0 0,0
02.06.2020 12:00:00 21,0 16,4 22,7 24,5 22,4 9 5 16 9 Z 1016,4 44 0 0,0
02.06.2020 11:00:00 21,7 15,3 25,4 24,7 22,4 12 6 19 10 ZW 1016,6 56 29 0,0
02.06.2020 10:00:00 20,2 14,3 25,0 24,7 22,4 9 5 15 8 ZW 1016,4 41 31 0,0
02.06.2020 09:00:00 19,7 13,8 18,8 24,9 22,4 5 3 10 5 ZZW 1016,4 24 43 0,0
02.06.2020 08:00:00 16,2 12,4 14,6 25,1 22,4 7 4 13 7 NO 1016,2 41 8 0,0
02.06.2020 07:00:00 14,3 11,4 13,5 25,3 22,4 10 5 18 10 NNO 1015,9 43 1 0,0
02.06.2020 06:00:00 14,0 11,3 13,0 25,5 22,4 12 6 17 9 NO 1015,7 42 0 0,0
02.06.2020 05:00:00 13,8 11,3 12,9 25,6 22,4 10 6 15 8 NO 1015,9 39 0 0,0
02.06.2020 04:00:00 14,7 11,5 13,7 25,8 22,4 9 5 16 9 NO 1016,2 36 0 0,0
02.06.2020 03:00:00 15,2 11,8 14,3 26,0 22,4 9 5 18 10 NO 1016,4 47 0 0,0
02.06.2020 02:00:00 15,3 12,1 14,4 26,2 22,4 12 6 18 10 NO 1017,1 41 0 0,0
02.06.2020 01:00:00 15,8 12,2 14,8 26,3 22,4 9 5 16 8 NO 1017,5 44 0 0,0
02.06.2020 00:00:00 16,9 12,6 15,9 26,3 22,4 8 5 16 8 NNO 1017,5 44 0 0,0
01.06.2020 23:00:00 17,8 13,5 16,4 26,4 22,4 6 3 10 5 NO 1017,1 38 0 0,0
01.06.2020 22:00:00 19,0 14,0 17,3 26,3 22,4 3 2 10 5 O 1016,5 48 0 0,0
01.06.2020 21:00:00 20,5 13,9 19,4 26,1 22,3 6 3 16 9 NO 1016,2 60 22 0,0
01.06.2020 20:00:00 22,0 13,6 22,1 25,9 22,4 11 6 23 12 NW 1016,4 55 44 0,0
01.06.2020 19:00:00 23,5 13,4 26,5 25,7 22,4 9 5 22 12 Z 1016,3 52 60 0,0
01.06.2020 18:00:00 24,2 14,9 26,1 25,3 22,3 16 9 25 13 Z 1016,2 24 60 0,0
01.06.2020 17:00:00 24,2 15,1 26,3 25,0 22,3 16 9 30 16 ZZW 1016,6 22 60 0,0
01.06.2020 16:00:00 23,9 15,1 26,3 24,7 22,3 21 12 29 15 ZZW 1016,8 20 60 0,0
01.06.2020 15:00:00 24,2 14,3 31,2 24,4 22,3 19 11 31 17 ZZW 1017,0 21 60 0,0
01.06.2020 14:00:00 23,4 15,4 30,5 24,2 22,2 22 12 34 18 ZW 1017,3 23 60 0,0
01.06.2020 13:00:00 24,1 16,4 28,8 24,0 22,3 22 12 32 18 ZW 1017,2 28 58 0,0
01.06.2020 12:00:00 22,7 15,5 29,0 24,0 22,3 13 7 21 11 ZW 1017,2 31 60 0,0
01.06.2020 11:00:00 21,6 14,7 28,9 24,1 22,3 13 7 20 11 ZW 1017,5 33 60 0,0
01.06.2020 10:00:00 20,7 13,4 27,2 24,2 22,3 5 3 11 6 WZW 1017,5 22 60 0,0
01.06.2020 09:00:00 19,5 11,3 21,5 24,4 22,3 5 3 10 6 WZW 1017,4 23 60 0,0
01.06.2020 08:00:00 17,3 11,1 15,7 24,6 22,3 4 2 13 7 NO 1016,9 48 60 0,0
01.06.2020 07:00:00 14,0 10,6 11,5 24,8 22,3 8 5 16 9 NO 1016,4 45 35 0,0
01.06.2020 06:00:00 12,8 10,2 11,8 25,0 22,3 10 6 18 10 NO 1016,0 39 0 0,0
01.06.2020 05:00:00 13,3 10,8 11,8 25,2 22,3 11 6 17 9 NO 1016,1 38 0 0,0
01.06.2020 04:00:00 14,4 10,6 12,4 25,4 22,3 9 5 17 9 NO 1016,5 34 0 0,0
01.06.2020 03:00:00 13,7 11,0 12,7 25,5 22,3 10 6 18 10 NO 1016,5 42 0 0,0
01.06.2020 02:00:00 14,7 11,7 13,6 25,7 22,3 9 5 19 10 NNO 1016,7 44 0 0,0
01.06.2020 01:00:00 14,9 11,9 13,9 25,8 22,3 9 5 18 10 NNO 1016,8 43 0 0,0
01.06.2020 00:00:00 16,2 12,4 15,2 25,9 22,3 10 6 16 9 NO 1016,7 42 0 0,0
31.05.2020 23:00:00 17,4 12,7 16,2 26,0 22,3 10 5 14 8 NO 1016,5 44 0 0,0
31.05.2020 22:00:00 18,3 12,3 16,8 25,9 22,3 6 3 15 8 ONO 1016,1 48 0 0,0
31.05.2020 21:00:00 20,2 12,4 18,9 25,8 22,3 8 4 13 7 NW 1015,2 60 21 0,0
31.05.2020 20:00:00 22,1 11,8 23,1 25,6 22,3 9 5 18 10 Z 1014,9 57 60 0,0
31.05.2020 19:00:00 23,1 12,4 25,9 25,2 22,3 13 7 19 10 ZZW 1014,7 60 60 0,0
31.05.2020 18:00:00 23,2 14,2 25,9 24,9 22,3 14 8 22 12 Z 1015,4 50 60 0,0
31.05.2020 17:00:00 23,3 15,4 24,9 24,6 22,3 15 8 24 13 ZW 1015,9 55 55 0,0
31.05.2020 16:00:00 22,9 15,2 25,4 24,2 22,3 19 10 29 15 ZZW 1016,3 27 54 0,0
31.05.2020 15:00:00 23,2 15,0 30,3 23,9 22,3 21 11 31 17 ZZW 1016,1 24 60 0,0
31.05.2020 14:00:00 22,6 15,4 29,9 23,7 22,3 24 13 34 18 ZW 1016,2 26 60 0,0
31.05.2020 13:00:00 22,7 14,8 31,9 23,6 22,3 21 12 29 16 ZW 1016,2 33 60 0,0
31.05.2020 12:00:00 22,6 14,4 31,0 23,5 22,3 19 10 30 16 ZW 1016,1 43 60 0,0
31.05.2020 11:00:00 21,8 14,2 30,3 23,5 22,3 16 8 22 12 ZW 1016,1 53 60 0,0
31.05.2020 10:00:00 20,7 12,1 26,8 23,6 22,3 9 5 15 8 WZW 1016,3 60 60 0,0
31.05.2020 09:00:00 19,6 10,6 20,4 23,8 22,3 4 2 12 7 N 1016,3 39 60 0,0
31.05.2020 08:00:00 16,6 11,5 14,6 24,0 22,3 6 3 16 9 NNO 1016,4 54 60 0,0
31.05.2020 07:00:00 13,3 9,7 11,4 24,2 22,3 9 5 21 12 NO 1016,4 37 35 0,0
31.05.2020 06:00:00 12,2 9,4 11,4 24,4 22,3 11 6 19 10 NNO 1015,9 52 0 0,0
31.05.2020 05:00:00 12,4 10,1 11,5 24,6 22,3 11 6 21 11 NNO 1015,9 47 0 0,0
31.05.2020 04:00:00 12,5 10,4 11,6 24,8 22,3 11 6 18 10 NO 1015,9 36 0 0,0
31.05.2020 03:00:00 13,0 11,2 11,8 24,9 22,3 12 6 19 11 NNO 1016,2 43 0 0,0
31.05.2020 02:00:00 13,8 11,3 12,7 25,1 22,3 7 4 13 7 NO 1016,3 30 0 0,0
31.05.2020 01:00:00 14,3 11,8 13,4 25,2 22,3 12 6 18 10 NNO 1016,3 44 0 0,0
31.05.2020 00:00:00 14,8 12,1 13,9 25,3 22,3 11 6 16 9 NO 1016,4 38 0 0,0
30.05.2020 23:00:00 16,0 12,9 14,9 25,3 22,3 11 6 16 8 ONO 1016,5 45 0 0,0

tt = temperatuur
td = dauwpunt
tt 5cm = temperatuur 5cm
tt -20cm = temperatuur -20cm
tt -100cm = temperatuur -100cm
ff = windsnelheid
fx = windstoten
dd = windrichting
ppp = luchtdruk
vv = zicht
sd = Zonneschijnduur
rr = neerslag

Weerstations in de omgeving